Regional Weather Roundup
Issued by NWS

Home | Current Version | Previous Version | Text Only | Print | Product List | Glossary On
Versions: 1 2 3 4 5 6 7 8 9 10 11 12 13 14 15 16 17 18 19 20 21 22 23 24 25 26 27 28 29 30 31 32 33 34 35 36 37 38 39 40 41 42 43 44 45 46 47 48 49 50
000
ASUS44 KBMX 010710
RWRAL

ALABAMA REGIONAL WEATHER ROUNDUP
NATIONAL WEATHER SERVICE BIRMINGHAM AL
200 AM CDT FRI AUG 01 2014

NOTE: "FAIR" INDICATES FEW OR NO CLOUDS BELOW 12,000 FEET
WITH NO SIGNIFICANT WEATHER AND/OR OBSTRUCTIONS TO VISIBILITY.

THE REMARK "TC" DENOTES TEMPERATURE IN DEGREES CELSIUS.

ALZ001>011-014-016>018-020-010800-
NORTH ALABAMA

CITY           SKY/WX    TMP DP  RH WIND       PRES   REMARKS
MUSCLE SHOALS  PTCLDY    64  61  90 CALM      30.06F FOG
HUNTSVILLE     PTCLDY    68  63  84 E3        30.05F
DECATUR        PTCLDY    61  60  97 N3        30.06S FOG
HALEYVILLE     FAIR      61  61 100 CALM      30.08F
GADSDEN        MOCLDY    68  63  83 NE7       30.04F
$$

ALZ012-013-022-023-030>036-040>044-010800-
WEST CENTRAL ALABAMA

CITY           SKY/WX    TMP DP  RH WIND       PRES   REMARKS
TUSCALOOSA     MOCLDY    69  64  84 CALM      30.01F
$$

ALZ015-024>027-033>036-040>044-010800-
CENTRAL ALABAMA

CITY           SKY/WX    TMP DP  RH WIND       PRES   REMARKS
BIRMINGHAM     MOCLDY    71  66  84 CALM      30.05F
MONTGOMERY     CLOUDY    74  67  78 N5        30.00F
SHELBY CO ARPT PTCLDY    72  66  81 CALM      30.03F
MAXWELL AFB    CLOUDY    74  69  84 NE5       29.99F
GREENVILLE     NOT AVBL
$$

ALZ019-021-028-029-037-038-045>048-010800-
EAST CENTRAL ALABAMA

CITY           SKY/WX    TMP DP  RH WIND       PRES   REMARKS
ANNISTON       MOCLDY    70  66  87 NE6       30.04S
ALEXANDER CITY MOCLDY    76  69  79 E3        30.04S
AUBURN         PTCLDY    70  64  83 NE9       30.05S
$$

ALZ051>064-010800-
SOUTHWEST ALABAMA

CITY           SKY/WX    TMP DP  RH WIND       PRES   REMARKS
MOBILE         PTCLDY    70  67  90 CALM      29.99F
BROOKLEY FIELD PTCLDY    70  67  90 CALM      29.99F
EVERGREEN      PTCLDY    70  65  84 NW3       30.00S
$$

ALZ049-050-065>069-010800-
SOUTHEAST ALABAMA

CITY           SKY/WX    TMP DP  RH WIND       PRES   REMARKS
DOTHAN         PTCLDY    70  66  87 CALM      30.01S
OZARK          PTCLDY    69  64  84 NW5       29.97F
TROY           MOCLDY    70  67  90 CALM      30.00S
EUFAULA        FAIR      75  69  81 NE5       29.98S
$$


USA.gov is the U.S. government's official web portal to all federal, state and local government web resources and services.